owner,sensor,date,latitude,longitude,vertical_datum,wind_speed,wind_to_direction,wind_speed_of_gust,qcFlag 
DISL,ioos:station:DISL:MBLA:1,2008-10-01T00:00:00Z,30.4367,-88.0117,14.2,5.33,296.7,-9999.0,'1111122,1111122,1111122' 
DISL,ioos:station:DISL:MBLA:1,2008-10-01T00:30:00Z,30.4367,-88.0117,14.2,5.44,297.5,-9999.0,'1111122,1111122,1111122' 
DISL,ioos:station:DISL:MBLA:1,2008-10-01T01:00:00Z,30.4367,-88.0117,14.2,5.25,300.9,-9999.0,'1111122,1111122,1111122' 
DISL,ioos:station:DISL:MBLA:1,2008-10-01T01:30:00Z,30.4367,-88.0117,14.2,4.66,303.2,-9999.0,'1111122,1111122,1111122' 
DISL,ioos:station:DISL:MBLA:1,2008-10-01T02:00:00Z,30.4367,-88.0117,14.2,4.39,302.6,-9999.0,'1111122,1111122,1111122' 
DISL,ioos:station:DISL:MBLA:1,2008-10-01T02:30:00Z,30.4367,-88.0117,14.2,4.8,304.0,-9999.0,'1111122,1111122,1111122' 
DISL,ioos:station:DISL:MBLA:1,2008-10-01T03:00:00Z,30.4367,-88.0117,14.2,4.48,304.0,-9999.0,'1111122,1111122,1111122' 
DISL,ioos:station:DISL:MBLA:1,2008-10-01T03:30:00Z,30.4367,-88.0117,14.2,4.45,298.1,-9999.0,'1111122,1111122,1111122' 
DISL,ioos:station:DISL:MBLA:1,2008-10-01T04:00:00Z,30.4367,-88.0117,14.2,9.38,317.5,-9999.0,'1111122,1111122,1111122' 
DISL,ioos:station:DISL:MBLA:1,2008-10-01T04:30:00Z,30.4367,-88.0117,14.2,10.64,336.5,-9999.0,'1111122,1111122,1111122' 
DISL,ioos:station:DISL:MBLA:1,2008-10-01T05:00:00Z,30.4367,-88.0117,14.2,9.49,345.1,-9999.0,'1111122,1111122,1111122' 
DISL,ioos:station:DISL:MBLA:1,2008-10-01T05:30:00Z,30.4367,-88.0117,14.2,9.86,342.1,-9999.0,'1111122,1111122,1111122' 
DISL,ioos:station:DISL:MBLA:1,2008-10-01T06:00:00Z,30.4367,-88.0117,14.2,9.85,342.2,-9999.0,'1111122,1111122,1111122' 
DISL,ioos:station:DISL:MBLA:1,2008-10-01T06:30:00Z,30.4367,-88.0117,14.2,9.07,339.7,-9999.0,'1111122,1111122,1111122' 
DISL,ioos:station:DISL:MBLA:1,2008-10-01T07:00:00Z,30.4367,-88.0117,14.2,8.42,340.4,-9999.0,'1111122,1111122,1111122' 
DISL,ioos:station:DISL:MBLA:1,2008-10-01T07:30:00Z,30.4367,-88.0117,14.2,8.4,340.2,-9999.0,'1111122,1111122,1111122' 
DISL,ioos:station:DISL:MBLA:1,2008-10-01T08:00:00Z,30.4367,-88.0117,14.2,8.68,340.5,-9999.0,'1111122,1111122,1111122' 
DISL,ioos:station:DISL:MBLA:1,2008-10-01T08:30:00Z,30.4367,-88.0117,14.2,8.7,341.4,-9999.0,'1111122,1111122,1111122' 
DISL,ioos:station:DISL:MBLA:1,2008-10-01T09:00:00Z,30.4367,-88.0117,14.2,8.48,342.4,-9999.0,'1111122,1111122,1111122' 
DISL,ioos:station:DISL:MBLA:1,2008-10-01T09:30:00Z,30.4367,-88.0117,14.2,9.91,344.3,-9999.0,'1111122,1111122,1111122' 
DISL,ioos:station:DISL:MBLA:1,2008-10-01T10:00:00Z,30.4367,-88.0117,14.2,10.0,339.7,-9999.0,'1111122,1111122,1111122' 
DISL,ioos:station:DISL:MBLA:1,2008-10-01T10:30:00Z,30.4367,-88.0117,14.2,9.92,346.6,-9999.0,'1111122,1111122,1111122' 
DISL,ioos:station:DISL:MBLA:1,2008-10-01T11:00:00Z,30.4367,-88.0117,14.2,10.14,350.5,-9999.0,'1111122,1111122,1111122' 
DISL,ioos:station:DISL:MBLA:1,2008-10-01T11:30:00Z,30.4367,-88.0117,14.2,9.87,348.8,-9999.0,'1111122,1111122,1111122' 
DISL,ioos:station:DISL:MBLA:1,2008-10-01T12:00:00Z,30.4367,-88.0117,14.2,9.66,352.3,-9999.0,'1111122,1111122,1111122' 
DISL,ioos:station:DISL:MBLA:1,2008-10-01T12:30:00Z,30.4367,-88.0117,14.2,8.12,343.8,-9999.0,'1111122,1111122,1111122' 
DISL,ioos:station:DISL:MBLA:1,2008-10-01T13:00:00Z,30.4367,-88.0117,14.2,8.08,349.8,-9999.0,'1111122,1111122,1111122' 
DISL,ioos:station:DISL:MBLA:1,2008-10-01T13:30:00Z,30.4367,-88.0117,14.2,7.67,354.9,-9999.0,'1111122,1111122,1111122' 
DISL,ioos:station:DISL:MBLA:1,2008-10-01T14:00:00Z,30.4367,-88.0117,14.2,6.83,350.0,-9999.0,'1111122,1111122,1111122' 
DISL,ioos:station:DISL:MBLA:1,2008-10-01T14:30:00Z,30.4367,-88.0117,14.2,6.1,346.4,-9999.0,'1111122,1111122,1111122' 
DISL,ioos:station:DISL:MBLA:1,2008-10-01T15:00:00Z,30.4367,-88.0117,14.2,5.36,344.2,-9999.0,'1111122,1111122,1111122' 
DISL,ioos:station:DISL:MBLA:1,2008-10-01T15:30:00Z,30.4367,-88.0117,14.2,6.07,346.0,-9999.0,'1111122,1111122,1111122' 
DISL,ioos:station:DISL:MBLA:1,2008-10-01T16:00:00Z,30.4367,-88.0117,14.2,6.16,354.3,-9999.0,'1111122,1111122,1111122' 
DISL,ioos:station:DISL:MBLA:1,2008-10-01T16:30:00Z,30.4367,-88.0117,14.2,5.23,3.543,-9999.0,'1111122,1111122,1111122' 
DISL,ioos:station:DISL:MBLA:1,2008-10-01T17:00:00Z,30.4367,-88.0117,14.2,7.72,335.5,-9999.0,'1111122,1111122,1111122' 
DISL,ioos:station:DISL:MBLA:1,2008-10-01T17:30:00Z,30.4367,-88.0117,14.2,6.26,339.3,-9999.0,'1111122,1111122,1111122' 
DISL,ioos:station:DISL:MBLA:1,2008-10-01T18:00:00Z,30.4367,-88.0117,14.2,6.65,339.5,-9999.0,'1111122,1111122,1111122' 
DISL,ioos:station:DISL:MBLA:1,2008-10-01T18:30:00Z,30.4367,-88.0117,14.2,6.4,343.2,-9999.0,'1111122,1111122,1111122' 
DISL,ioos:station:DISL:MBLA:1,2008-10-01T19:00:00Z,30.4367,-88.0117,14.2,7.25,344.6,-9999.0,'1111122,1111122,1111122' 
DISL,ioos:station:DISL:MBLA:1,2008-10-01T19:30:00Z,30.4367,-88.0117,14.2,7.75,342.7,-9999.0,'1111122,1111122,1111122' 
DISL,ioos:station:DISL:MBLA:1,2008-10-01T20:00:00Z,30.4367,-88.0117,14.2,6.31,348.4,-9999.0,'1111122,1111122,1111122' 
DISL,ioos:station:DISL:MBLA:1,2008-10-01T20:30:00Z,30.4367,-88.0117,14.2,7.19,356.1,-9999.0,'1111122,1111122,1111122' 
DISL,ioos:station:DISL:MBLA:1,2008-10-01T21:00:00Z,30.4367,-88.0117,14.2,6.32,349.9,-9999.0,'1111122,1111122,1111122' 
DISL,ioos:station:DISL:MBLA:1,2008-10-01T21:30:00Z,30.4367,-88.0117,14.2,7.63,335.6,-9999.0,'1111122,1111122,1111122' 
DISL,ioos:station:DISL:MBLA:1,2008-10-01T22:00:00Z,30.4367,-88.0117,14.2,5.63,334.1,-9999.0,'1111122,1111122,1111122' 
DISL,ioos:station:DISL:MBLA:1,2008-10-01T22:30:00Z,30.4367,-88.0117,14.2,6.54,337.5,-9999.0,'1111122,1111122,1111122' 
DISL,ioos:station:DISL:MBLA:1,2008-10-01T23:00:00Z,30.4367,-88.0117,14.2,7.42,337.3,-9999.0,'1111122,1111122,1111122' 
DISL,ioos:station:DISL:MBLA:1,2008-10-01T23:30:00Z,30.4367,-88.0117,14.2,8.46,330.9,-9999.0,'1111122,1111122,1111122' 
DISL,ioos:station:DISL:MBLA:1,2008-10-02T00:00:00Z,30.4367,-88.0117,14.2,8.26,336.2,-9999.0,'1111122,1111122,1111122' 
DISL,ioos:station:DISL:MBLA:1,2008-10-02T00:30:00Z,30.4367,-88.0117,14.2,8.58,338.7,-9999.0,'1111122,1111122,1111122' 
DISL,ioos:station:DISL:MBLA:1,2008-10-02T01:00:00Z,30.4367,-88.0117,14.2,7.41,337.9,-9999.0,'1111122,1111122,1111122' 
DISL,ioos:station:DISL:MBLA:1,2008-10-02T01:30:00Z,30.4367,-88.0117,14.2,7.4,336.7,-9999.0,'1111122,1111122,1111122' 
DISL,ioos:station:DISL:MBLA:1,2008-10-02T02:00:00Z,30.4367,-88.0117,14.2,7.39,337.0,-9999.0,'1111122,1111122,1111122' 
DISL,ioos:station:DISL:MBLA:1,2008-10-02T02:30:00Z,30.4367,-88.0117,14.2,7.96,345.2,-9999.0,'1111122,1111122,1111122' 
DISL,ioos:station:DISL:MBLA:1,2008-10-02T03:00:00Z,30.4367,-88.0117,14.2,7.88,338.2,-9999.0,'1111122,1111122,1111122' 
DISL,ioos:station:DISL:MBLA:1,2008-10-02T03:30:00Z,30.4367,-88.0117,14.2,7.9,342.2,-9999.0,'1111122,1111122,1111122' 
DISL,ioos:station:DISL:MBLA:1,2008-10-02T04:00:00Z,30.4367,-88.0117,14.2,7.81,341.2,-9999.0,'1111122,1111122,1111122' 
DISL,ioos:station:DISL:MBLA:1,2008-10-02T04:30:00Z,30.4367,-88.0117,14.2,9.06,355.8,-9999.0,'1111122,1111122,1111122' 
DISL,ioos:station:DISL:MBLA:1,2008-10-02T05:00:00Z,30.4367,-88.0117,14.2,9.79,3.147,-9999.0,'1111122,1111122,1111122' 
DISL,ioos:station:DISL:MBLA:1,2008-10-02T05:30:00Z,30.4367,-88.0117,14.2,9.3,1.608,-9999.0,'1111122,1111122,1111122' 
DISL,ioos:station:DISL:MBLA:1,2008-10-02T06:00:00Z,30.4367,-88.0117,14.2,8.71,7.53,-9999.0,'1111122,1111122,1111122' 
DISL,ioos:station:DISL:MBLA:1,2008-10-02T06:30:00Z,30.4367,-88.0117,14.2,8.06,359.2,-9999.0,'1111122,1111122,1111122' 
DISL,ioos:station:DISL:MBLA:1,2008-10-02T07:00:00Z,30.4367,-88.0117,14.2,8.43,357.7,-9999.0,'1111122,1111122,1111122' 
DISL,ioos:station:DISL:MBLA:1,2008-10-02T07:30:00Z,30.4367,-88.0117,14.2,8.52,2.33,-9999.0,'1111122,1111122,1111122' 
DISL,ioos:station:DISL:MBLA:1,2008-10-02T08:00:00Z,30.4367,-88.0117,14.2,7.9,4.343,-9999.0,'1111122,1111122,1111122' 
DISL,ioos:station:DISL:MBLA:1,2008-10-02T08:30:00Z,30.4367,-88.0117,14.2,7.85,0.033,-9999.0,'1111122,1111122,1111122' 
DISL,ioos:station:DISL:MBLA:1,2008-10-02T09:00:00Z,30.4367,-88.0117,14.2,8.06,0.973,-9999.0,'1111122,1111122,1111122' 
DISL,ioos:station:DISL:MBLA:1,2008-10-02T09:30:00Z,30.4367,-88.0117,14.2,7.65,2.999,-9999.0,'1111122,1111122,1111122' 
DISL,ioos:station:DISL:MBLA:1,2008-10-02T10:00:00Z,30.4367,-88.0117,14.2,7.22,2.14,-9999.0,'1111122,1111122,1111122' 
DISL,ioos:station:DISL:MBLA:1,2008-10-02T10:30:00Z,30.4367,-88.0117,14.2,6.85,6.153,-9999.0,'1111122,1111122,1111122' 
DISL,ioos:station:DISL:MBLA:1,2008-10-02T11:00:00Z,30.4367,-88.0117,14.2,7.15,6.919,-9999.0,'1111122,1111122,1111122' 
DISL,ioos:station:DISL:MBLA:1,2008-10-02T11:30:00Z,30.4367,-88.0117,14.2,7.06,9.42,-9999.0,'1111122,1111122,1111122' 
DISL,ioos:station:DISL:MBLA:1,2008-10-02T12:00:00Z,30.4367,-88.0117,14.2,6.09,17.41,-9999.0,'1111122,1111122,1111122' 
DISL,ioos:station:DISL:MBLA:1,2008-10-02T12:30:00Z,30.4367,-88.0117,14.2,5.53,25.5,-9999.0,'1111122,1111122,1111122' 
DISL,ioos:station:DISL:MBLA:1,2008-10-02T13:00:00Z,30.4367,-88.0117,14.2,5.02,24.64,-9999.0,'1111122,1111122,1111122' 
DISL,ioos:station:DISL:MBLA:1,2008-10-02T13:30:00Z,30.4367,-88.0117,14.2,4.49,21.19,-9999.0,'1111122,1111122,1111122' 
DISL,ioos:station:DISL:MBLA:1,2008-10-02T14:00:00Z,30.4367,-88.0117,14.2,3.62,26.29,-9999.0,'1111122,1111122,1111122' 
DISL,ioos:station:DISL:MBLA:1,2008-10-02T14:30:00Z,30.4367,-88.0117,14.2,3.39,29.44,-9999.0,'1111122,1111122,1111122' 
DISL,ioos:station:DISL:MBLA:1,2008-10-02T15:00:00Z,30.4367,-88.0117,14.2,2.16,48.5,-9999.0,'1111122,1111122,1111122' 
DISL,ioos:station:DISL:MBLA:1,2008-10-02T15:30:00Z,30.4367,-88.0117,14.2,1.06,25.77,-9999.0,'1111122,1111122,1111122' 
DISL,ioos:station:DISL:MBLA:1,2008-10-02T16:00:00Z,30.4367,-88.0117,14.2,0.67,10.34,-9999.0,'1111122,1111122,1111122' 
DISL,ioos:station:DISL:MBLA:1,2008-10-02T16:30:00Z,30.4367,-88.0117,14.2,0.71,251.3,-9999.0,'1111122,1111122,1111122' 
DISL,ioos:station:DISL:MBLA:1,2008-10-02T17:00:00Z,30.4367,-88.0117,14.2,1.2,234.8,-9999.0,'1111122,1111122,1111122' 
DISL,ioos:station:DISL:MBLA:1,2008-10-02T17:30:00Z,30.4367,-88.0117,14.2,1.45,235.9,-9999.0,'1111122,1111122,1111122' 
DISL,ioos:station:DISL:MBLA:1,2008-10-02T18:00:00Z,30.4367,-88.0117,14.2,2.24,204.3,-9999.0,'1111122,1111122,1111122' 
DISL,ioos:station:DISL:MBLA:1,2008-10-02T18:30:00Z,30.4367,-88.0117,14.2,2.09,212.5,-9999.0,'1111122,1111122,1111122' 
DISL,ioos:station:DISL:MBLA:1,2008-10-02T19:00:00Z,30.4367,-88.0117,14.2,2.99,233.0,-9999.0,'1111122,1111122,1111122' 
DISL,ioos:station:DISL:MBLA:1,2008-10-02T19:30:00Z,30.4367,-88.0117,14.2,3.37,209.6,-9999.0,'1111122,1111122,1111122' 
DISL,ioos:station:DISL:MBLA:1,2008-10-02T20:00:00Z,30.4367,-88.0117,14.2,4.42,198.9,-9999.0,'1111122,1111122,1111122' 
DISL,ioos:station:DISL:MBLA:1,2008-10-02T20:30:00Z,30.4367,-88.0117,14.2,5.24,194.8,-9999.0,'1111122,1111122,1111122' 
DISL,ioos:station:DISL:MBLA:1,2008-10-02T21:00:00Z,30.4367,-88.0117,14.2,5.83,193.2,-9999.0,'1111122,1111122,1111122' 
DISL,ioos:station:DISL:MBLA:1,2008-10-02T21:30:00Z,30.4367,-88.0117,14.2,6.16,197.4,-9999.0,'1111122,1111122,1111122' 
DISL,ioos:station:DISL:MBLA:1,2008-10-02T22:00:00Z,30.4367,-88.0117,14.2,6.4,207.2,-9999.0,'1111122,1111122,1111122' 
DISL,ioos:station:DISL:MBLA:1,2008-10-02T22:30:00Z,30.4367,-88.0117,14.2,6.9,217.6,-9999.0,'1111122,1111122,1111122' 
DISL,ioos:station:DISL:MBLA:1,2008-10-02T23:00:00Z,30.4367,-88.0117,14.2,6.72,215.6,-9999.0,'1111122,1111122,1111122' 
DISL,ioos:station:DISL:MBLA:1,2008-10-02T23:30:00Z,30.4367,-88.0117,14.2,7.16,224.1,-9999.0,'1111122,1111122,1111122' 
DISL,ioos:station:DISL:MBLA:1,2008-10-03T00:00:00Z,30.4367,-88.0117,14.2,6.93,236.9,-9999.0,'1111122,1111122,1111122' 
DISL,ioos:station:DISL:MBLA:1,2008-10-03T00:30:00Z,30.4367,-88.0117,14.2,6.29,235.2,-9999.0,'1111122,1111122,1111122' 
DISL,ioos:station:DISL:MBLA:1,2008-10-03T01:00:00Z,30.4367,-88.0117,14.2,6.29,236.5,-9999.0,'1111122,1111122,1111122' 
DISL,ioos:station:DISL:MBLA:1,2008-10-03T01:30:00Z,30.4367,-88.0117,14.2,6.29,236.2,-9999.0,'1111122,1111122,1111122' 
DISL,ioos:station:DISL:MBLA:1,2008-10-03T02:00:00Z,30.4367,-88.0117,14.2,5.97,230.8,-9999.0,'1111122,1111122,1111122' 
DISL,ioos:station:DISL:MBLA:1,2008-10-03T02:30:00Z,30.4367,-88.0117,14.2,5.99,226.8,-9999.0,'1111122,1111122,1111122' 
DISL,ioos:station:DISL:MBLA:1,2008-10-03T03:00:00Z,30.4367,-88.0117,14.2,6.19,224.5,-9999.0,'1111122,1111122,1111122' 
DISL,ioos:station:DISL:MBLA:1,2008-10-03T03:30:00Z,30.4367,-88.0117,14.2,6.9,231.5,-9999.0,'1111122,1111122,1111122' 
DISL,ioos:station:DISL:MBLA:1,2008-10-03T04:00:00Z,30.4367,-88.0117,14.2,6.39,232.4,-9999.0,'1111122,1111122,1111122' 
DISL,ioos:station:DISL:MBLA:1,2008-10-03T04:30:00Z,30.4367,-88.0117,14.2,5.85,237.1,-9999.0,'1111122,1111122,1111122' 
DISL,ioos:station:DISL:MBLA:1,2008-10-03T05:00:00Z,30.4367,-88.0117,14.2,5.8,232.7,-9999.0,'1111122,1111122,1111122' 
DISL,ioos:station:DISL:MBLA:1,2008-10-03T05:30:00Z,30.4367,-88.0117,14.2,5.08,231.9,-9999.0,'1111122,1111122,1111122' 
DISL,ioos:station:DISL:MBLA:1,2008-10-03T06:00:00Z,30.4367,-88.0117,14.2,5.73,239.4,-9999.0,'1111122,1111122,1111122' 
DISL,ioos:station:DISL:MBLA:1,2008-10-03T06:30:00Z,30.4367,-88.0117,14.2,4.26,236.8,-9999.0,'1111122,1111122,1111122' 
DISL,ioos:station:DISL:MBLA:1,2008-10-03T07:00:00Z,30.4367,-88.0117,14.2,5.48,250.4,-9999.0,'1111122,1111122,1111122' 
DISL,ioos:station:DISL:MBLA:1,2008-10-03T07:30:00Z,30.4367,-88.0117,14.2,5.38,248.5,-9999.0,'1111122,1111122,1111122' 
DISL,ioos:station:DISL:MBLA:1,2008-10-03T08:00:00Z,30.4367,-88.0117,14.2,5.45,257.3,-9999.0,'1111122,1111122,1111122' 
DISL,ioos:station:DISL:MBLA:1,2008-10-03T08:30:00Z,30.4367,-88.0117,14.2,5.08,256.6,-9999.0,'1111122,1111122,1111122' 
DISL,ioos:station:DISL:MBLA:1,2008-10-03T09:00:00Z,30.4367,-88.0117,14.2,5.83,260.5,-9999.0,'1111122,1111122,1111122' 
DISL,ioos:station:DISL:MBLA:1,2008-10-03T09:30:00Z,30.4367,-88.0117,14.2,5.29,259.1,-9999.0,'1111122,1111122,1111122' 
DISL,ioos:station:DISL:MBLA:1,2008-10-03T10:00:00Z,30.4367,-88.0117,14.2,5.2,262.0,-9999.0,'1111122,1111122,1111122' 
DISL,ioos:station:DISL:MBLA:1,2008-10-03T10:30:00Z,30.4367,-88.0117,14.2,5.34,253.9,-9999.0,'1111122,1111122,1111122' 
DISL,ioos:station:DISL:MBLA:1,2008-10-03T11:00:00Z,30.4367,-88.0117,14.2,4.42,273.9,-9999.0,'1111122,1111122,1111122' 
DISL,ioos:station:DISL:MBLA:1,2008-10-03T11:30:00Z,30.4367,-88.0117,14.2,4.96,282.3,-9999.0,'1111122,1111122,1111122' 
DISL,ioos:station:DISL:MBLA:1,2008-10-03T12:00:00Z,30.4367,-88.0117,14.2,5.87,287.8,-9999.0,'1111122,1111122,1111122' 
DISL,ioos:station:DISL:MBLA:1,2008-10-03T12:30:00Z,30.4367,-88.0117,14.2,4.88,302.4,-9999.0,'1111122,1111122,1111122' 
DISL,ioos:station:DISL:MBLA:1,2008-10-03T13:00:00Z,30.4367,-88.0117,14.2,4.61,300.7,-9999.0,'1111122,1111122,1111122' 
DISL,ioos:station:DISL:MBLA:1,2008-10-03T13:30:00Z,30.4367,-88.0117,14.2,4.23,298.0,-9999.0,'1111122,1111122,1111122' 
DISL,ioos:station:DISL:MBLA:1,2008-10-03T14:00:00Z,30.4367,-88.0117,14.2,3.77,330.0,-9999.0,'1111122,1111122,1111122' 
DISL,ioos:station:DISL:MBLA:1,2008-10-03T14:30:00Z,30.4367,-88.0117,14.2,2.48,328.8,-9999.0,'1111122,1111122,1111122' 
DISL,ioos:station:DISL:MBLA:1,2008-10-03T15:00:00Z,30.4367,-88.0117,14.2,1.81,3.616,-9999.0,'1111122,1111122,1111122' 
DISL,ioos:station:DISL:MBLA:1,2008-10-03T15:30:00Z,30.4367,-88.0117,14.2,1.41,294.5,-9999.0,'1111122,1111122,1111122' 
DISL,ioos:station:DISL:MBLA:1,2008-10-03T16:00:00Z,30.4367,-88.0117,14.2,1.02,73.3,-9999.0,'1111122,1111122,1111122' 
DISL,ioos:station:DISL:MBLA:1,2008-10-03T16:30:00Z,30.4367,-88.0117,14.2,0.9,147.9,-9999.0,'1111122,1111122,1111122' 
DISL,ioos:station:DISL:MBLA:1,2008-10-03T17:00:00Z,30.4367,-88.0117,14.2,1.65,172.8,-9999.0,'1111122,1111122,1111122' 
DISL,ioos:station:DISL:MBLA:1,2008-10-03T17:30:00Z,30.4367,-88.0117,14.2,5.21,200.3,-9999.0,'1111122,1111122,1111122' 
DISL,ioos:station:DISL:MBLA:1,2008-10-03T18:00:00Z,30.4367,-88.0117,14.2,6.3,194.0,-9999.0,'1111122,1111122,1111122' 
DISL,ioos:station:DISL:MBLA:1,2008-10-03T18:30:00Z,30.4367,-88.0117,14.2,6.09,194.6,-9999.0,'1111122,1111122,1111122' 
DISL,ioos:station:DISL:MBLA:1,2008-10-03T19:00:00Z,30.4367,-88.0117,14.2,6.27,196.5,-9999.0,'1111122,1111122,1111122' 
DISL,ioos:station:DISL:MBLA:1,2008-10-03T19:30:00Z,30.4367,-88.0117,14.2,7.24,200.3,-9999.0,'1111122,1111122,1111122' 
DISL,ioos:station:DISL:MBLA:1,2008-10-03T20:00:00Z,30.4367,-88.0117,14.2,7.35,201.8,-9999.0,'1111122,1111122,1111122' 
DISL,ioos:station:DISL:MBLA:1,2008-10-03T20:30:00Z,30.4367,-88.0117,14.2,7.01,204.5,-9999.0,'1111122,1111122,1111122' 
DISL,ioos:station:DISL:MBLA:1,2008-10-03T21:00:00Z,30.4367,-88.0117,14.2,7.39,208.0,-9999.0,'1111122,1111122,1111122' 
DISL,ioos:station:DISL:MBLA:1,2008-10-03T21:30:00Z,30.4367,-88.0117,14.2,7.33,209.6,-9999.0,'1111122,1111122,1111122' 
DISL,ioos:station:DISL:MBLA:1,2008-10-03T22:00:00Z,30.4367,-88.0117,14.2,7.22,214.2,-9999.0,'1111122,1111122,1111122' 
DISL,ioos:station:DISL:MBLA:1,2008-10-03T22:30:00Z,30.4367,-88.0117,14.2,7.07,218.4,-9999.0,'1111122,1111122,1111122' 
DISL,ioos:station:DISL:MBLA:1,2008-10-03T23:00:00Z,30.4367,-88.0117,14.2,6.93,223.1,-9999.0,'1111122,1111122,1111122' 
DISL,ioos:station:DISL:MBLA:1,2008-10-03T23:30:00Z,30.4367,-88.0117,14.2,6.81,229.6,-9999.0,'1111122,1111122,1111122' 
DISL,ioos:station:DISL:MBLA:1,2008-10-04T00:00:00Z,30.4367,-88.0117,14.2,5.84,234.7,-9999.0,'1111122,1111122,1111122' 
DISL,ioos:station:DISL:MBLA:1,2008-10-04T00:30:00Z,30.4367,-88.0117,14.2,5.16,228.2,-9999.0,'1111122,1111122,1111122' 
DISL,ioos:station:DISL:MBLA:1,2008-10-04T01:00:00Z,30.4367,-88.0117,14.2,4.75,224.9,-9999.0,'1111122,1111122,1111122' 
DISL,ioos:station:DISL:MBLA:1,2008-10-04T01:30:00Z,30.4367,-88.0117,14.2,5.29,230.2,-9999.0,'1111122,1111122,1111122' 
DISL,ioos:station:DISL:MBLA:1,2008-10-04T02:00:00Z,30.4367,-88.0117,14.2,5.1,243.0,-9999.0,'1111122,1111122,1111122' 
DISL,ioos:station:DISL:MBLA:1,2008-10-04T02:30:00Z,30.4367,-88.0117,14.2,4.89,243.0,-9999.0,'1111122,1111122,1111122' 
DISL,ioos:station:DISL:MBLA:1,2008-10-04T03:00:00Z,30.4367,-88.0117,14.2,5.24,237.1,-9999.0,'1111122,1111122,1111122' 
DISL,ioos:station:DISL:MBLA:1,2008-10-04T03:30:00Z,30.4367,-88.0117,14.2,5.09,233.0,-9999.0,'1111122,1111122,1111122' 
DISL,ioos:station:DISL:MBLA:1,2008-10-04T04:00:00Z,30.4367,-88.0117,14.2,4.76,228.0,-9999.0,'1111122,1111122,1111122' 
DISL,ioos:station:DISL:MBLA:1,2008-10-04T04:30:00Z,30.4367,-88.0117,14.2,5.39,229.1,-9999.0,'1111122,1111122,1111122' 
DISL,ioos:station:DISL:MBLA:1,2008-10-04T05:00:00Z,30.4367,-88.0117,14.2,4.51,234.5,-9999.0,'1111122,1111122,1111122' 
DISL,ioos:station:DISL:MBLA:1,2008-10-04T05:30:00Z,30.4367,-88.0117,14.2,4.05,230.6,-9999.0,'1111122,1111122,1111122' 
DISL,ioos:station:DISL:MBLA:1,2008-10-04T06:00:00Z,30.4367,-88.0117,14.2,4.33,241.3,-9999.0,'1111122,1111122,1111122' 
DISL,ioos:station:DISL:MBLA:1,2008-10-04T06:30:00Z,30.4367,-88.0117,14.2,3.59,258.6,-9999.0,'1111122,1111122,1111122' 
DISL,ioos:station:DISL:MBLA:1,2008-10-04T07:00:00Z,30.4367,-88.0117,14.2,2.6,263.5,-9999.0,'1111122,1111122,1111122' 
DISL,ioos:station:DISL:MBLA:1,2008-10-04T07:30:00Z,30.4367,-88.0117,14.2,3.53,289.8,-9999.0,'1111122,1111122,1111122' 
DISL,ioos:station:DISL:MBLA:1,2008-10-04T08:00:00Z,30.4367,-88.0117,14.2,3.62,278.8,-9999.0,'1111122,1111122,1111122' 
DISL,ioos:station:DISL:MBLA:1,2008-10-04T08:30:00Z,30.4367,-88.0117,14.2,4.31,291.2,-9999.0,'1111122,1111122,1111122' 
DISL,ioos:station:DISL:MBLA:1,2008-10-04T09:00:00Z,30.4367,-88.0117,14.2,4.3,297.2,-9999.0,'1111122,1111122,1111122' 
DISL,ioos:station:DISL:MBLA:1,2008-10-04T09:30:00Z,30.4367,-88.0117,14.2,4.25,288.6,-9999.0,'1111122,1111122,1111122' 
DISL,ioos:station:DISL:MBLA:1,2008-10-04T10:00:00Z,30.4367,-88.0117,14.2,3.33,285.3,-9999.0,'1111122,1111122,1111122' 
DISL,ioos:station:DISL:MBLA:1,2008-10-04T10:30:00Z,30.4367,-88.0117,14.2,2.53,292.9,-9999.0,'1111122,1111122,1111122' 
DISL,ioos:station:DISL:MBLA:1,2008-10-04T11:00:00Z,30.4367,-88.0117,14.2,3.68,296.8,-9999.0,'1111122,1111122,1111122' 
DISL,ioos:station:DISL:MBLA:1,2008-10-04T11:30:00Z,30.4367,-88.0117,14.2,3.18,298.4,-9999.0,'1111122,1111122,1111122' 
DISL,ioos:station:DISL:MBLA:1,2008-10-04T12:00:00Z,30.4367,-88.0117,14.2,3.29,289.4,-9999.0,'1111122,1111122,1111122' 
DISL,ioos:station:DISL:MBLA:1,2008-10-04T12:30:00Z,30.4367,-88.0117,14.2,3.22,300.2,-9999.0,'1111122,1111122,1111122' 
DISL,ioos:station:DISL:MBLA:1,2008-10-04T13:00:00Z,30.4367,-88.0117,14.2,2.9,320.0,-9999.0,'1111122,1111122,1111122' 
DISL,ioos:station:DISL:MBLA:1,2008-10-04T13:30:00Z,30.4367,-88.0117,14.2,2.64,328.9,-9999.0,'1111122,1111122,1111122' 
DISL,ioos:station:DISL:MBLA:1,2008-10-04T14:00:00Z,30.4367,-88.0117,14.2,2.27,359.6,-9999.0,'1111122,1111122,1111122' 
DISL,ioos:station:DISL:MBLA:1,2008-10-04T14:30:00Z,30.4367,-88.0117,14.2,2.23,9.26,-9999.0,'1111122,1111122,1111122' 
DISL,ioos:station:DISL:MBLA:1,2008-10-04T15:00:00Z,30.4367,-88.0117,14.2,1.83,22.13,-9999.0,'1111122,1111122,1111122' 
DISL,ioos:station:DISL:MBLA:1,2008-10-04T15:30:00Z,30.4367,-88.0117,14.2,2.11,20.56,-9999.0,'1111122,1111122,1111122' 
DISL,ioos:station:DISL:MBLA:1,2008-10-04T16:00:00Z,30.4367,-88.0117,14.2,2.61,26.45,-9999.0,'1111122,1111122,1111122' 
DISL,ioos:station:DISL:MBLA:1,2008-10-04T16:30:00Z,30.4367,-88.0117,14.2,3.2,27.54,-9999.0,'1111122,1111122,1111122' 
DISL,ioos:station:DISL:MBLA:1,2008-10-04T17:00:00Z,30.4367,-88.0117,14.2,3.39,34.62,-9999.0,'1111122,1111122,1111122' 
DISL,ioos:station:DISL:MBLA:1,2008-10-04T17:30:00Z,30.4367,-88.0117,14.2,3.58,11.97,-9999.0,'1111122,1111122,1111122' 
DISL,ioos:station:DISL:MBLA:1,2008-10-04T18:00:00Z,30.4367,-88.0117,14.2,2.96,357.1,-9999.0,'1111122,1111122,1111122' 
DISL,ioos:station:DISL:MBLA:1,2008-10-04T18:30:00Z,30.4367,-88.0117,14.2,2.47,317.4,-9999.0,'1111122,1111122,1111122' 
DISL,ioos:station:DISL:MBLA:1,2008-10-04T19:00:00Z,30.4367,-88.0117,14.2,2.11,341.0,-9999.0,'1111122,1111122,1111122' 
DISL,ioos:station:DISL:MBLA:1,2008-10-04T19:30:00Z,30.4367,-88.0117,14.2,2.21,285.1,-9999.0,'1111122,1111122,1111122' 
DISL,ioos:station:DISL:MBLA:1,2008-10-04T20:00:00Z,30.4367,-88.0117,14.2,1.0,256.6,-9999.0,'1111122,1111122,1111122' 
DISL,ioos:station:DISL:MBLA:1,2008-10-04T20:30:00Z,30.4367,-88.0117,14.2,1.15,244.9,-9999.0,'1111122,1111122,1111122' 
DISL,ioos:station:DISL:MBLA:1,2008-10-04T21:00:00Z,30.4367,-88.0117,14.2,1.18,229.5,-9999.0,'1111122,1111122,1111122' 
DISL,ioos:station:DISL:MBLA:1,2008-10-04T21:30:00Z,30.4367,-88.0117,14.2,3.45,178.1,-9999.0,'1111122,1111122,1111122' 
DISL,ioos:station:DISL:MBLA:1,2008-10-04T22:00:00Z,30.4367,-88.0117,14.2,4.17,161.7,-9999.0,'1111122,1111122,1111122' 
DISL,ioos:station:DISL:MBLA:1,2008-10-04T22:30:00Z,30.4367,-88.0117,14.2,5.79,154.4,-9999.0,'1111122,1111122,1111122' 
DISL,ioos:station:DISL:MBLA:1,2008-10-04T23:00:00Z,30.4367,-88.0117,14.2,5.99,152.2,-9999.0,'1111122,1111122,1111122' 
DISL,ioos:station:DISL:MBLA:1,2008-10-04T23:30:00Z,30.4367,-88.0117,14.2,6.44,149.8,-9999.0,'1111122,1111122,1111122' 
DISL,ioos:station:DISL:MBLA:1,2008-10-05T00:00:00Z,30.4367,-88.0117,14.2,5.53,151.4,-9999.0,'1111122,1111122,1111122' 
DISL,ioos:station:DISL:MBLA:1,2008-10-05T00:30:00Z,30.4367,-88.0117,14.2,4.92,154.0,-9999.0,'1111122,1111122,1111122' 
DISL,ioos:station:DISL:MBLA:1,2008-10-05T01:00:00Z,30.4367,-88.0117,14.2,4.41,156.8,-9999.0,'1111122,1111122,1111122' 
DISL,ioos:station:DISL:MBLA:1,2008-10-05T01:30:00Z,30.4367,-88.0117,14.2,4.14,153.8,-9999.0,'1111122,1111122,1111122' 
DISL,ioos:station:DISL:MBLA:1,2008-10-05T02:00:00Z,30.4367,-88.0117,14.2,4.38,158.9,-9999.0,'1111122,1111122,1111122' 
DISL,ioos:station:DISL:MBLA:1,2008-10-05T02:30:00Z,30.4367,-88.0117,14.2,4.75,154.0,-9999.0,'1111122,1111122,1111122' 
DISL,ioos:station:DISL:MBLA:1,2008-10-05T03:00:00Z,30.4367,-88.0117,14.2,3.89,146.2,-9999.0,'1111122,1111122,1111122' 
DISL,ioos:station:DISL:MBLA:1,2008-10-05T03:30:00Z,30.4367,-88.0117,14.2,3.72,139.9,-9999.0,'1111122,1111122,1111122' 
DISL,ioos:station:DISL:MBLA:1,2008-10-05T04:00:00Z,30.4367,-88.0117,14.2,2.25,137.0,-9999.0,'1111122,1111122,1111122' 